GFSGBSN_700_spd_021.txt.gz
Wind_Speed
23 21 24 23 20 20 20 17 15 13 12 11 12 12 13 15 16 16 16 17 18 17 18 17 17 17 17 6 7 15 14 17 12 10 5 5 7 6 3 6 8 7 9 8 8 8 6
22 20 21 21 17 18 16 13 12 9 9 10 11 13 14 15 16 17 18 19 18 18 16 16 17 16 15 6 12 14 15 16 8 5 4 4 4 3 8 12 5 10 8 7 5 4 6
20 18 19 17 14 14 11 10 7 6 7 10 11 13 15 16 18 20 21 20 18 15 15 17 16 15 8 10 12 16 13 13 12 8 4 8 5 7 9 7 8 9 6 4 6 6 4
19 17 16 13 11 9 7 6 3 5 8 11 13 15 18 20 21 22 22 19 16 14 14 14 13 13 4 5 9 15 12 9 7 7 8 9 11 9 8 7 7 7 8 11 6 5 6
16 15 12 10 8 6 4 3 5 8 10 13 17 18 20 23 25 24 21 17 15 14 13 13 12 10 3 4 6 12 11 8 9 9 9 9 9 6 7 7 8 9 12 3 3 6 4
15 13 11 9 7 6 5 8 9 11 14 18 21 23 25 26 26 24 20 17 16 15 15 12 10 5 5 6 9 11 11 12 9 10 7 5 3 4 5 9 11 6 4 5 5 3 5
14 13 12 10 9 9 9 11 14 14 18 22 24 25 26 27 26 23 21 19 17 17 14 7 9 5 6 8 9 11 13 13 10 7 6 5 7 1 2 3 3 0 3 4 4 5 3
15 14 13 12 12 12 13 13 15 17 19 22 24 25 26 27 25 22 22 13 16 15 10 10 9 10 10 14 6 8 13 5 7 6 6 4 3 2 1 1 1 2 4 2 5 4 2
16 15 13 13 15 14 15 14 15 18 21 23 23 24 26 25 22 21 19 20 17 18 9 10 11 6 10 10 8 10 11 6 5 6 5 1 5 4 2 2 3 4 3 4 7 9 11
17 16 14 14 15 16 17 17 17 18 20 21 22 23 25 23 19 20 19 20 19 16 7 5 3 4 7 10 3 8 9 9 4 6 7 4 5 2 1 2 4 7 4 9 9 8 10
18 17 15 15 15 17 18 19 20 20 20 21 22 23 24 24 21 21 20 22 19 10 4 6 3 6 9 4 8 4 8 5 6 7 5 3 3 1 2 3 5 6 11 8 7 8 10
20 18 15 15 16 17 19 19 20 20 20 21 23 24 24 22 23 22 20 21 14 1 3 6 5 8 8 7 6 8 6 7 9 5 5 5 3 0 2 6 4 5 7 7 4 5 7
21 19 16 15 15 16 17 19 20 20 21 22 23 23 22 22 23 22 19 19 6 4 7 7 9 8 7 7 9 8 6 5 4 5 3 4 1 2 3 5 5 8 6 6 3 5 2
21 19 16 14 14 14 16 18 19 21 22 23 23 23 23 21 22 21 18 11 7 3 8 10 12 12 6 8 6 6 7 6 4 3 3 4 6 2 6 2 3 5 4 3 4 3 5
22 20 17 14 14 15 16 17 18 20 22 22 22 22 23 22 21 21 17 11 3 7 9 14 14 8 7 6 6 5 8 5 4 4 2 1 2 1 4 4 4 5 2 1 2 2 3
23 21 18 15 14 15 16 16 17 20 22 22 22 21 22 22 20 21 10 10 5 12 13 14 8 8 7 7 5 6 4 4 3 5 6 1 2 2 4 5 5 2 2 4 1 3 4
24 22 19 16 14 15 17 16 16 19 21 21 21 15 20 20 21 17 10 7 10 15 17 11 7 7 8 7 7 5 4 5 4 2 4 3 1 1 4 1 4 5 3 4 5 3 4
25 23 21 17 14 14 17 17 16 17 20 22 20 9 21 23 16 13 9 8 14 18 17 12 8 8 8 8 6 4 6 5 4 2 1 4 1 2 2 5 4 3 4 4 4 5 6
27 24 22 19 15 14 15 19 18 17 18 21 11 12 22 25 13 18 15 14 15 16 12 9 11 9 9 9 4 7 6 5 3 1 1 1 2 4 3 0 3 3 5 6 6 7 13
28 25 23 20 17 15 14 17 20 19 18 19 10 11 20 24 14 14 15 15 18 18 15 13 11 10 10 7 5 8 6 5 4 3 2 2 2 2 7 10 12 12 13 13 14 15 15
29 26 24 22 19 16 15 15 18 19 19 17 12 11 18 20 15 13 13 14 14 16 15 12 11 8 10 7 8 7 6 5 6 5 4 2 2 5 9 13 14 15 16 16 18 21 21
30 28 26 23 21 19 16 15 16 18 18 19 13 13 18 14 16 15 15 13 14 13 11 13 9 12 9 7 5 8 6 4 4 5 3 6 4 11 15 9 12 17 20 20 18 13 15
33 29 26 24 22 20 19 17 17 17 16 17 16 15 17 15 18 15 15 14 14 13 14 9 12 11 13 9 10 9 10 9 7 4 6 7 6 8 7 15 23 8 3 2 7 10 12
35 31 28 25 23 21 19 18 18 17 16 14 15 14 16 17 19 14 15 13 14 12 12 14 11 12 11 9 9 9 9 8 9 11 11 10 8 7 8 10 3 4 10 16 13 11 10
36 33 29 26 24 21 20 19 18 16 15 15 15 14 15 15 20 18 15 16 16 14 11 14 12 10 9 9 8 6 6 7 10 12 10 9 8 5 3 7 18 9 1 4 12 14 15
35 33 30 26 24 22 21 19 18 17 16 15 15 16 16 14 18 18 17 16 17 17 14 13 13 11 10 9 7 5 4 4 3 4 8 9 9 7 7 4 4 6 9 12 10 19 7
37 34 31 28 24 22 20 19 19 18 17 15 14 14 16 17 16 18 17 18 15 14 12 15 13 13 12 11 10 8 6 7 4 5 8 9 10 12 11 9 10 13 15 17 10 11 21
37 35 33 30 26 24 21 19 19 19 18 17 15 14 14 15 14 19 19 17 16 16 15 16 15 16 15 13 10 10 9 8 8 7 10 8 7 8 8 7 8 4 11 15 21 26 23
38 35 34 32 28 26 23 21 20 19 18 17 16 15 15 15 11 15 15 16 17 19 16 16 16 11 12 11 13 9 9 10 11 7 8 10 13 10 9 10 15 25 23 25 34 31 35

GFSGBSN_700_spd_024.txt.gz
Wind_Speed
27 27 24 25 27 27 25 26 25 22 19 16 14 13 14 15 15 15 16 14 14 15 16 17 17 19 17 10 3 10 17 12 10 12 9 4 7 6 8 6 5 3 6 7 8 12 6
25 26 23 24 25 26 24 23 21 17 15 13 12 12 13 14 15 15 15 16 16 16 16 17 18 19 11 4 9 6 17 14 5 1 2 5 1 2 5 9 7 7 8 8 7 6 4
23 22 23 23 24 22 20 19 16 12 11 10 10 11 12 14 14 16 17 18 17 16 16 16 18 19 5 0 7 7 11 9 6 8 3 7 6 4 5 4 5 8 7 6 5 3 1
23 22 20 22 21 18 16 15 10 8 8 9 11 12 14 15 17 18 19 19 16 15 13 14 15 14 3 7 11 15 6 4 4 6 4 5 13 4 1 5 6 7 7 9 8 7 7
20 21 18 19 16 14 13 9 5 7 9 11 13 14 17 19 20 21 21 18 15 14 14 14 13 7 1 2 8 8 12 5 6 6 9 10 10 3 4 6 7 8 10 8 8 6 4
20 18 17 16 13 11 9 6 6 7 12 13 16 19 21 23 25 23 20 17 15 15 14 13 13 1 3 6 9 10 10 10 5 8 7 6 3 5 5 9 2 10 6 2 2 5 3
18 17 15 14 12 9 8 8 9 12 14 17 19 22 26 27 25 23 20 18 16 17 17 2 8 2 2 7 11 9 12 10 8 4 5 3 6 1 6 3 5 6 4 3 5 2 5
19 16 15 14 11 10 10 11 12 15 17 18 22 25 27 27 25 24 24 13 14 12 6 10 12 10 9 11 5 7 12 8 5 7 4 4 4 4 2 5 4 3 3 4 2 5 4
19 17 15 14 12 12 12 12 14 16 19 22 24 26 27 25 24 25 15 10 15 16 8 9 9 4 11 8 9 6 11 4 7 6 5 1 5 3 2 2 3 4 3 3 4 9 12
19 19 16 15 15 14 15 15 15 17 20 21 23 26 26 23 20 21 14 20 15 18 8 6 4 1 6 6 2 5 10 9 5 4 6 3 1 3 1 1 4 6 1 6 9 10 13
21 19 17 16 16 16 16 17 17 18 19 20 21 25 25 22 21 15 17 22 19 9 4 9 7 10 7 3 4 1 8 7 3 5 4 4 2 2 2 3 4 5 11 10 8 10 11
23 20 17 17 18 18 18 18 18 19 20 21 23 25 25 21 20 22 22 25 10 1 4 7 5 8 7 3 4 5 6 10 9 4 3 4 2 1 2 5 6 5 8 10 9 9 8
24 21 17 17 18 18 19 19 19 19 20 21 22 22 23 22 23 19 21 18 2 4 7 6 12 10 6 7 6 6 6 6 2 5 5 4 2 4 4 6 2 7 8 7 3 6 2
24 21 17 17 17 17 19 21 22 22 22 22 21 22 23 21 22 20 19 11 6 2 6 9 12 11 8 7 5 8 7 6 3 2 4 9 7 1 5 3 3 4 4 3 4 4 8
25 21 18 17 16 16 18 20 21 22 22 21 21 22 22 21 20 19 20 10 1 2 7 10 13 11 7 5 6 7 6 3 2 8 3 2 5 1 3 3 5 5 4 3 4 4 4
25 22 19 17 15 16 17 18 20 22 22 21 20 21 21 19 21 19 16 10 4 6 7 12 10 7 7 7 7 7 4 3 1 7 7 2 4 2 4 6 6 8 3 4 2 2 3
26 23 19 16 15 16 17 16 18 21 21 21 21 19 19 21 21 21 9 8 7 11 10 12 7 7 5 9 5 6 4 4 5 3 5 5 3 2 4 3 5 4 3 4 5 3 2
26 24 20 16 15 16 18 16 17 21 22 21 19 9 11 21 20 19 9 9 8 9 16 14 7 7 8 7 6 5 8 6 5 6 3 3 4 2 3 3 3 3 3 4 2 5 3
27 24 21 17 15 16 18 17 17 21 22 22 18 7 11 21 13 18 12 8 8 9 9 6 6 8 8 8 5 8 8 7 6 5 7 6 2 2 7 0 4 5 3 5 5 8 12
28 25 22 19 16 16 18 19 18 21 23 23 9 7 18 26 9 17 10 9 12 15 15 8 7 7 9 8 5 8 6 7 6 4 4 3 2 1 1 5 9 10 11 12 14 15 15
29 26 23 20 18 16 17 20 20 21 26 21 9 7 18 27 12 11 13 9 10 16 10 9 6 6 8 7 6 7 7 5 5 4 4 3 2 3 6 9 9 11 14 14 16 18 20
30 26 23 21 19 17 16 18 21 21 22 19 8 5 15 6 17 11 14 12 12 9 8 11 7 9 9 7 5 8 6 4 2 4 3 4 4 9 12 3 9 19 20 14 13 16 16
30 27 24 22 20 18 17 16 18 19 19 16 15 12 14 13 15 15 15 10 13 14 13 9 9 13 13 14 15 17 14 12 8 2 3 6 5 8 5 12 21 4 2 5 8 8 10
32 28 25 22 21 19 18 17 17 17 17 17 16 12 12 12 13 14 10 12 13 11 9 9 13 17 20 12 10 11 11 9 7 9 10 9 8 7 8 10 2 1 16 14 14 8 10
33 30 26 23 21 20 19 18 17 16 15 13 13 14 13 14 13 13 12 12 18 16 15 18 17 15 11 12 10 7 7 7 8 9 8 7 7 4 4 4 15 6 6 6 10 17 10
34 30 27 24 22 20 18 17 17 15 14 13 13 13 11 13 17 12 12 19 17 19 18 13 15 13 12 12 10 7 5 4 4 3 6 7 8 8 8 3 4 2 8 14 17 15 13
34 31 28 25 22 21 19 18 16 15 14 13 13 13 15 13 14 16 17 17 13 13 12 14 14 14 14 13 12 9 7 8 6 8 5 6 9 13 9 7 9 10 11 12 6 8 20
33 31 28 26 23 21 19 18 17 16 15 14 13 13 14 15 12 18 18 18 18 13 15 14 15 17 16 14 11 11 10 11 11 7 8 6 5 6 6 7 9 1 8 12 13 23 28
35 32 29 27 25 22 20 18 17 17 16 15 15 14 13 14 9 14 18 17 19 20 15 16 13 12 11 10 12 9 11 10 12 6 6 9 12 9 11 9 8 16 13 23 27 30 33

GFSGBSN_700_spd_027.txt.gz
Wind_Speed
28 27 26 26 26 26 28 27 28 28 28 26 21 16 15 15 16 15 15 14 14 14 14 16 18 23 13 6 8 4 14 12 14 11 10 7 2 4 6 4 5 2 5 4 7 17 16
27 25 25 26 24 25 26 25 26 26 25 20 16 14 13 14 14 14 14 14 14 14 16 17 22 21 12 6 5 10 15 10 6 3 4 3 2 8 3 11 11 6 2 5 11 18 12
25 24 24 24 22 22 23 23 24 23 19 16 13 11 12 14 12 13 14 15 16 17 17 19 22 19 5 6 6 10 16 10 11 8 5 8 8 9 7 13 8 9 8 4 6 5 7
23 23 23 22 20 20 21 20 20 17 14 11 9 10 11 13 14 15 17 18 18 17 17 19 20 14 3 2 9 17 14 12 14 9 11 12 12 11 3 6 9 10 10 12 8 5 5
22 22 22 20 18 17 18 16 15 13 10 9 11 12 14 16 18 20 21 19 18 17 17 19 17 6 5 6 8 16 14 9 10 12 5 13 11 8 6 8 10 11 12 13 14 7 5
23 22 19 17 15 15 14 11 12 8 9 11 13 15 18 21 23 23 21 19 18 18 19 19 16 3 5 4 9 13 16 9 11 12 12 14 11 5 5 5 8 6 7 17 15 13 10
22 20 18 14 14 13 9 10 9 8 11 14 16 19 23 25 25 24 21 19 18 19 20 11 4 9 2 7 7 11 13 15 15 12 9 3 3 6 10 6 5 4 8 12 16 11 0
22 18 17 14 13 11 8 10 9 11 14 17 20 24 27 28 26 25 26 18 16 16 8 10 10 8 10 10 7 9 13 13 12 7 0 4 5 5 1 3 4 5 4 8 7 4 8
24 18 16 14 13 10 12 12 11 13 17 21 25 27 28 26 25 25 11 19 18 10 8 10 6 5 17 13 6 13 17 11 6 3 4 6 5 2 7 4 6 5 4 3 4 3 7
23 19 17 15 14 13 15 14 14 16 20 23 26 28 27 25 26 15 15 20 21 15 8 8 10 7 11 11 12 11 12 12 6 1 9 4 4 4 5 2 1 3 4 7 8 7 6
22 21 18 17 16 16 17 17 17 18 20 23 26 28 26 24 25 18 20 21 20 7 3 10 7 7 6 5 3 4 13 11 2 1 6 5 5 5 4 4 5 3 7 8 7 8 9
23 23 19 18 19 18 19 19 19 20 20 21 24 26 24 22 23 18 19 21 14 4 4 9 7 11 7 5 5 2 13 9 5 6 4 6 4 2 4 1 9 6 7 9 10 8 5
25 24 20 20 20 20 21 21 21 21 22 22 25 26 25 21 21 19 23 17 3 1 10 9 13 10 7 8 7 9 10 10 6 6 5 10 3 7 4 3 5 6 7 4 2 1 3
28 24 21 21 20 22 21 22 22 22 22 21 22 23 23 20 18 19 22 12 1 4 7 9 15 11 9 10 12 9 7 9 10 8 11 12 4 1 5 4 1 7 8 4 0 1 5
29 24 22 21 20 21 23 24 23 23 22 22 22 23 24 21 18 18 21 9 2 4 11 12 12 13 12 6 8 6 10 4 4 7 5 8 5 3 3 6 5 5 6 5 1 4 2
28 25 23 21 20 20 23 24 24 24 23 22 22 21 20 19 19 20 23 9 1 6 6 13 14 13 10 9 9 5 4 3 3 8 8 8 7 2 8 7 9 11 6 4 3 1 3
29 26 23 20 19 20 22 24 25 25 24 23 22 20 20 19 20 22 21 9 4 11 15 14 13 10 7 12 8 9 5 5 8 6 5 13 6 6 4 3 2 4 4 1 2 1 4
29 26 23 20 19 20 22 24 25 26 26 24 21 17 18 20 22 23 18 4 8 8 14 13 7 10 7 12 5 8 9 6 8 10 6 8 9 8 5 4 4 3 2 1 2 2 2
29 26 24 20 19 21 22 22 24 25 26 24 20 15 13 21 20 22 11 8 7 7 14 12 14 11 7 12 6 8 12 8 11 8 9 11 7 7 3 1 2 4 1 6 8 10 9
30 28 24 21 19 21 22 21 23 25 26 24 19 14 12 19 16 21 10 11 13 12 12 10 9 13 12 10 8 10 10 11 8 7 8 8 9 5 6 2 5 7 8 8 11 8 13
31 29 25 21 20 20 22 20 23 27 29 26 13 12 13 25 17 17 13 7 14 16 15 14 9 9 13 8 6 9 8 9 7 8 8 7 9 8 8 7 9 9 11 12 14 15 15
32 29 26 23 21 20 22 21 24 28 31 21 13 14 12 13 19 17 16 13 12 7 10 10 6 9 11 12 12 10 8 3 5 7 9 8 6 6 5 6 8 14 13 3 2 4 9
31 29 26 24 21 20 21 23 24 30 28 18 11 12 17 12 25 16 13 14 14 14 8 11 11 15 15 14 16 15 14 11 9 7 9 6 4 4 3 7 12 3 4 5 8 9 9
32 29 26 24 22 20 21 22 24 25 25 22 17 14 18 17 20 17 15 16 11 15 12 13 12 19 18 14 13 13 13 11 11 10 10 8 7 5 5 7 1 6 9 13 14 9 12
32 29 27 24 22 20 19 23 22 21 21 20 14 15 12 12 16 17 13 13 14 16 15 18 20 18 18 17 14 12 12 11 12 13 12 12 9 4 4 4 13 8 6 11 8 11 16
32 29 26 24 22 20 19 16 18 20 17 14 13 12 11 11 16 17 16 16 19 19 18 20 18 16 16 16 14 8 6 5 6 5 11 8 7 8 7 4 6 9 5 10 14 15 18
32 29 26 24 22 20 18 17 15 15 14 13 12 12 12 11 17 19 16 19 20 21 18 18 16 15 14 14 13 11 10 10 7 7 8 11 10 14 13 8 9 11 17 17 11 14 14
31 29 26 24 21 19 18 16 15 14 14 13 12 11 11 12 11 17 19 19 17 14 16 15 15 17 16 15 13 13 11 13 13 13 10 9 6 8 10 8 9 8 12 17 19 21 22
31 29 27 24 21 19 17 16 16 15 15 14 12 11 11 11 8 14 19 17 19 17 14 14 16 14 13 11 14 11 12 11 16 11 14 12 14 10 12 10 21 23 21 25 26 24 28

GFSGBSN_700_spd_030.txt.gz
Wind_Speed
30 29 32 30 30 28 27 27 26 27 26 26 25 23 21 18 17 15 14 14 14 14 13 13 17 22 15 10 8 11 13 9 9 10 4 1 3 5 6 0 15 8 6 11 21 13 10
27 27 29 28 28 26 26 25 25 25 25 24 22 19 17 16 14 12 13 14 14 15 15 18 23 20 13 10 7 12 10 7 2 3 5 5 4 1 3 8 12 9 8 9 15 16 13
27 27 27 27 26 25 24 23 23 22 22 21 18 14 13 13 12 12 13 15 16 17 18 22 26 17 9 10 9 12 10 7 3 5 10 5 2 6 15 15 9 3 8 8 11 15 12
28 25 27 26 26 23 22 21 20 18 18 17 13 11 12 12 12 14 16 18 19 19 21 24 24 13 6 9 9 12 8 13 9 8 9 9 6 9 10 13 7 6 4 6 8 8 9
27 24 25 25 25 22 20 18 16 15 15 12 11 11 12 13 16 18 20 21 20 20 21 24 21 9 5 9 14 14 17 16 13 8 9 11 6 9 7 7 10 11 10 14 8 10 4
28 24 25 25 22 20 17 16 12 12 11 9 10 12 13 17 20 22 23 21 20 19 21 22 18 7 6 8 10 19 15 13 14 8 10 14 9 10 4 7 9 9 11 17 18 15 9
27 25 24 23 20 17 15 12 10 10 9 9 12 15 18 21 25 25 24 21 19 19 23 19 14 8 6 4 2 14 13 13 14 14 15 10 2 4 5 5 3 1 3 17 19 13 8
28 26 25 23 19 16 13 11 9 10 10 13 15 20 24 27 26 24 21 19 23 22 16 11 11 8 13 8 11 15 15 18 20 15 8 4 7 9 7 8 8 8 16 17 14 11 5
28 26 24 22 19 15 13 12 11 11 14 17 21 26 29 28 26 26 19 23 23 16 10 9 9 8 9 11 8 16 19 20 13 8 5 7 8 9 9 5 8 8 14 16 10 5 4
29 27 24 23 19 16 15 14 14 15 18 21 27 30 29 28 28 17 25 22 18 11 7 11 10 9 13 10 12 19 17 14 5 1 7 7 8 8 8 4 4 5 4 1 4 6 2
29 27 25 24 20 19 18 17 17 19 22 26 30 31 30 29 26 22 23 24 19 9 2 12 9 15 11 10 8 18 16 10 7 8 9 9 8 8 5 2 3 3 4 3 2 3 5
30 29 27 25 22 22 20 20 20 22 24 28 32 31 29 30 25 25 24 24 14 3 4 8 11 12 13 10 7 13 17 11 7 5 8 6 1 4 3 2 6 2 1 3 5 5 2
31 31 29 26 24 23 23 22 23 25 26 28 31 30 26 28 24 23 19 17 7 4 13 13 13 13 11 9 8 13 16 14 10 9 8 7 4 5 4 8 6 4 3 3 3 2 4
34 32 29 28 26 26 26 25 25 25 26 28 31 29 25 25 23 17 20 15 4 7 12 16 18 13 15 12 9 12 11 10 9 7 13 6 3 2 5 5 4 5 6 3 3 2 4
34 32 30 28 27 27 28 28 27 27 26 27 29 28 25 23 20 18 20 10 3 6 12 20 17 16 13 12 10 11 10 8 9 9 12 7 5 4 6 6 5 4 5 5 3 1 0
35 33 30 28 28 28 29 29 29 29 27 27 26 27 24 23 19 22 21 5 4 11 18 14 17 14 12 11 12 8 7 6 7 9 9 10 8 7 9 8 9 10 7 2 2 2 0
36 33 31 28 27 27 29 31 30 29 28 27 25 24 24 22 21 23 24 7 3 12 14 15 16 9 9 10 12 9 8 6 8 12 9 11 6 10 6 3 3 5 5 3 2 2 4
37 33 30 27 26 27 29 31 31 31 30 27 24 22 24 22 23 24 26 7 6 11 16 14 12 7 10 16 14 15 12 7 9 11 11 12 9 10 7 6 3 3 5 2 2 3 2
36 33 29 26 26 27 29 32 32 32 30 28 24 22 22 23 24 25 21 8 9 10 17 14 12 10 15 16 10 7 9 8 10 9 10 14 10 10 5 6 6 4 5 2 5 8 9
36 30 28 26 25 27 29 30 32 33 31 28 26 20 21 23 24 24 15 10 11 8 14 17 14 12 13 12 11 9 10 9 11 10 11 13 14 8 11 5 7 7 8 9 9 8 12
33 31 29 25 24 27 29 29 31 33 32 30 29 21 19 25 26 24 18 11 12 12 13 12 16 15 14 13 12 12 10 11 12 11 12 11 11 10 8 9 11 12 11 11 14 15 12
33 32 29 25 25 28 28 28 32 34 35 30 20 19 16 11 21 22 21 14 8 16 15 15 11 12 14 15 15 12 9 11 10 12 14 13 9 12 11 13 13 11 12 13 6 7 9
34 32 29 26 25 27 27 28 34 36 38 24 19 18 18 18 24 21 26 16 11 9 13 12 12 13 13 11 11 8 8 6 6 8 11 11 10 8 6 10 10 13 12 12 9 12 14
35 33 29 27 26 26 26 27 33 37 35 17 20 17 22 27 25 21 19 18 13 18 12 11 13 14 15 12 11 9 10 10 11 10 10 10 9 7 5 6 1 7 10 11 14 19 20
35 32 29 26 27 26 27 26 31 34 32 22 19 18 21 21 27 19 19 19 13 18 16 12 13 14 15 13 12 10 12 14 16 17 16 15 14 7 5 7 10 12 16 16 13 15 18
35 32 30 27 23 27 27 27 28 32 26 21 16 15 15 19 22 22 18 19 17 16 15 15 18 18 17 16 16 12 7 8 6 6 14 17 15 14 9 4 6 9 11 14 16 22 19
34 32 30 27 24 21 26 28 28 27 24 21 19 16 15 16 21 23 20 18 16 18 16 16 18 17 16 15 17 16 13 11 8 8 10 14 15 18 18 10 8 14 13 14 10 14 11
34 32 29 27 25 23 21 20 23 23 20 19 17 15 15 15 17 23 21 21 19 19 17 17 18 19 18 17 15 15 12 15 16 16 13 11 10 12 12 10 10 10 8 16 19 21 21
33 31 28 27 25 23 22 21 20 19 18 16 15 14 14 15 14 19 20 18 18 17 16 16 16 13 12 11 14 12 13 13 17 14 18 16 21 16 15 10 17 22 23 23 22 22 29

GFSGBSN_700_spd_033.txt.gz
Wind_Speed
32 31 30 31 32 32 30 31 30 29 29 28 26 26 24 21 20 16 14 13 15 16 12 14 13 15 15 11 11 13 12 7 6 10 6 4 6 3 6 4 15 17 15 8 14 13 15
33 31 29 29 30 30 28 29 28 27 28 27 25 23 21 18 15 14 12 14 16 14 15 15 16 19 16 13 13 13 13 14 10 7 9 9 7 0 5 9 17 13 13 14 19 15 13
34 31 30 29 28 28 25 27 27 26 27 25 22 20 17 14 13 12 13 15 15 15 17 18 20 20 13 11 11 16 12 11 11 7 9 8 6 4 8 19 11 7 11 16 16 16 12
35 32 30 29 27 26 25 25 25 26 24 22 19 15 13 12 12 12 14 16 16 17 18 20 23 15 10 14 12 11 9 9 8 5 6 6 9 10 16 20 15 8 8 11 17 14 11
35 33 32 29 27 26 24 23 22 25 21 19 14 11 11 10 12 14 16 17 18 19 20 22 22 13 8 14 15 11 9 8 8 4 3 6 7 15 16 16 12 8 4 5 8 12 9
35 35 32 30 26 26 23 22 22 21 17 14 11 9 10 11 14 17 19 19 18 18 20 24 19 10 7 7 17 16 9 10 8 7 6 7 8 6 6 6 7 8 10 11 13 11 11
37 35 32 29 26 26 22 21 21 18 14 10 9 10 11 14 17 20 20 19 18 17 23 23 16 5 9 10 9 17 12 12 11 9 10 10 6 6 4 5 5 7 11 14 12 12 15
36 35 33 30 28 25 22 21 20 15 11 10 11 13 16 19 22 22 20 17 18 18 21 17 15 11 9 8 8 18 15 13 14 11 10 7 7 5 6 3 2 3 4 14 15 13 9
37 35 33 30 28 24 23 20 18 13 12 13 15 17 22 26 25 22 19 18 17 17 15 13 14 13 8 7 10 15 14 16 15 12 7 6 6 7 6 5 4 11 16 19 16 8 3
39 37 34 31 28 25 24 20 18 15 15 17 20 24 27 27 25 22 19 21 20 16 10 12 12 12 9 7 7 15 17 14 9 8 6 7 9 10 10 5 3 12 12 10 9 6 6
41 39 35 32 29 26 25 22 19 18 19 22 26 30 31 30 24 21 21 23 17 12 3 14 11 12 11 11 11 17 13 11 6 13 8 8 9 8 6 6 5 5 7 5 5 4 6
42 37 36 33 29 28 26 24 21 21 22 26 30 32 31 31 22 22 22 21 17 3 3 11 12 18 15 10 12 18 12 10 10 7 8 11 8 7 6 6 5 6 7 7 6 4 1
43 39 37 34 31 30 28 26 24 24 25 29 34 33 30 32 22 23 22 21 9 5 14 14 16 16 15 12 10 20 16 15 11 13 14 10 5 4 8 8 5 2 7 3 1 0 4
42 41 38 35 33 32 30 29 27 27 28 32 35 33 30 32 23 23 24 20 7 6 14 14 15 15 14 13 12 19 17 13 12 8 14 6 4 4 6 10 5 2 2 3 4 3 3
43 41 39 36 35 33 33 32 30 29 29 32 36 32 29 32 24 25 24 18 1 9 10 21 20 18 15 13 11 16 15 13 11 10 6 7 4 4 5 8 8 4 2 3 4 2 1
43 42 40 38 35 34 35 34 32 31 31 32 34 31 29 29 25 26 23 10 3 8 17 22 22 15 19 16 14 15 12 10 12 11 13 9 7 10 8 7 4 6 6 1 2 2 1
45 42 40 39 35 36 37 35 34 32 32 33 34 33 30 26 26 28 23 7 6 11 22 23 18 15 12 16 15 13 12 8 10 12 13 13 8 10 10 5 6 5 3 2 2 2 4
45 42 42 38 36 37 38 37 35 35 33 33 32 32 31 27 28 27 26 8 7 6 20 17 20 7 11 15 17 14 10 7 8 11 12 13 8 13 8 7 6 5 5 4 1 2 4
45 43 41 38 37 37 39 38 36 36 35 33 31 32 29 29 30 30 29 12 10 9 10 14 12 10 11 19 14 15 13 11 7 10 10 13 8 10 5 7 8 7 9 7 5 6 8
45 43 39 37 36 37 39 39 38 37 35 32 31 27 28 30 29 32 26 17 11 11 10 12 11 12 14 16 12 9 11 8 8 11 11 14 10 10 11 4 8 10 11 11 11 9 14
45 42 38 35 35 37 38 38 39 37 36 33 32 24 31 33 30 29 24 18 13 10 11 13 14 14 16 15 11 11 10 9 10 12 12 12 9 16 10 9 9 11 13 15 17 17 15
44 39 36 35 35 35 35 38 40 39 37 35 32 21 27 12 29 28 27 19 16 13 12 13 12 16 14 15 15 10 12 11 11 13 12 13 8 13 12 13 14 17 18 19 20 23 24
41 38 35 35 33 33 35 37 39 39 37 35 30 23 22 21 28 28 30 22 14 13 17 13 9 10 13 12 10 8 7 6 6 9 11 13 12 9 7 14 16 16 21 24 19 18 16
41 38 35 32 31 33 34 35 37 38 36 30 26 23 24 24 27 26 26 22 17 12 8 12 13 14 13 10 7 8 7 7 6 6 7 8 10 10 6 7 1 14 14 13 19 19 19
41 37 33 31 31 32 31 32 36 37 38 26 23 20 24 19 27 23 22 26 19 15 15 10 8 12 12 12 10 6 8 9 11 13 14 14 14 9 6 11 13 11 16 17 19 20 18
38 35 33 32 31 32 29 32 36 41 40 31 28 21 21 22 30 25 19 18 19 18 19 16 12 14 14 17 14 10 7 7 6 6 13 18 18 17 10 5 6 7 11 13 16 21 16
38 35 31 31 32 31 29 31 36 38 38 16 18 20 20 26 26 25 22 18 17 18 17 16 14 16 16 17 16 15 13 13 9 11 12 14 15 20 22 13 11 16 17 16 12 11 14
39 35 30 27 32 32 31 31 33 35 34 21 18 15 16 20 22 25 22 20 20 19 17 17 16 17 18 17 15 14 11 14 16 19 18 15 9 13 15 11 13 17 18 20 12 20 21
38 34 31 28 26 33 32 31 31 29 26 20 18 18 18 19 19 23 21 20 18 17 16 15 15 14 13 12 17 14 12 13 17 15 19 18 21 17 16 10 15 11 12 23 25 24 24

GFSGBSN_700_spd_036.txt.gz
Wind_Speed
36 35 33 31 30 31 31 31 32 31 29 27 27 29 29 31 29 26 19 14 13 13 14 12 11 11 10 12 10 12 11 8 6 8 8 6 5 6 8 5 3 10 7 7 20 18 16
38 36 33 31 30 30 30 29 30 28 27 24 27 27 28 31 26 21 14 13 12 13 14 12 12 12 16 14 13 16 15 14 13 9 10 11 7 6 9 13 10 13 12 15 18 20 16
40 37 35 33 32 30 29 29 27 25 25 23 26 25 28 28 21 16 13 13 12 14 14 13 13 17 18 13 15 15 15 14 11 9 12 8 5 7 8 12 9 14 13 14 19 15 15
42 38 36 34 32 30 30 27 26 24 23 23 25 24 25 22 16 13 11 12 13 15 14 14 15 19 15 11 15 13 13 11 9 8 10 7 6 5 16 17 10 8 11 15 14 15 11
44 40 37 35 33 31 29 27 25 23 22 23 23 23 20 16 12 11 11 13 15 14 15 16 20 18 11 14 14 12 11 10 8 6 7 5 5 9 15 17 15 9 9 7 15 13 10
45 42 38 36 34 32 29 26 24 22 22 21 21 19 15 11 11 11 12 14 14 15 17 19 21 13 8 12 17 14 10 10 7 3 3 8 10 13 14 13 10 12 8 7 7 9 8
47 44 40 37 35 32 30 26 24 21 22 19 19 15 13 11 12 12 14 15 15 16 19 20 18 7 10 10 17 16 13 12 8 7 8 9 8 9 10 11 6 5 6 8 10 13 12
51 46 41 38 36 33 29 26 23 21 20 16 16 14 13 13 14 15 16 16 14 13 17 18 17 9 10 11 13 19 16 12 10 7 10 10 11 8 9 5 4 3 6 5 9 12 13
52 47 43 40 38 34 30 27 23 22 19 16 15 16 16 17 18 19 17 15 13 12 14 15 13 10 9 6 9 19 19 13 9 11 9 8 7 5 2 2 2 4 9 13 11 11 8
53 48 44 42 39 35 31 28 25 22 19 16 18 19 20 22 22 20 17 15 13 13 8 12 14 12 9 7 8 12 17 11 10 11 6 7 5 4 4 4 3 8 9 6 6 5 3
56 48 46 43 39 36 32 29 28 23 21 19 22 23 25 26 25 19 17 16 14 14 2 12 15 11 10 8 7 12 12 10 10 12 10 8 6 5 5 5 5 6 8 8 5 5 5
53 49 48 43 40 38 34 32 29 25 23 23 26 28 30 29 22 18 18 19 15 7 4 12 16 15 12 8 12 15 11 11 12 13 7 8 8 6 6 7 7 7 8 7 6 4 2
55 54 52 44 40 39 36 33 31 28 25 27 30 32 31 30 22 19 20 17 9 3 10 12 17 18 14 11 11 16 13 16 12 13 11 9 6 7 9 9 5 4 7 0 1 0 4
49 56 54 43 41 39 37 35 32 29 28 31 34 35 32 31 23 19 21 18 6 3 15 14 18 16 13 12 10 17 15 14 13 8 15 9 4 6 7 10 5 5 7 4 4 3 3
66 58 57 45 40 38 37 36 34 31 31 34 36 36 33 33 24 20 20 19 4 5 12 19 16 17 14 12 11 16 17 14 13 10 10 8 6 7 7 13 8 5 4 4 2 0 2
44 60 50 46 43 40 37 36 34 32 34 36 37 35 33 33 26 22 21 19 8 7 13 18 20 16 16 14 11 14 15 13 12 12 15 7 6 8 6 6 8 8 7 2 2 2 3
42 60 51 47 43 42 40 38 35 34 35 36 37 36 34 31 28 23 24 24 6 5 19 23 17 15 16 15 11 14 12 8 13 12 13 12 10 9 8 6 7 8 5 3 3 2 4
54 53 53 49 44 43 41 40 38 36 37 39 39 37 35 31 28 28 28 21 7 8 21 21 16 12 12 19 15 16 13 12 10 10 13 14 9 9 13 10 10 9 7 7 3 4 5
48 58 54 49 46 44 43 42 40 39 38 40 40 37 35 32 32 29 31 20 6 9 16 21 18 14 10 15 17 17 14 12 8 9 11 14 7 8 5 9 11 11 10 10 8 6 9
56 57 53 49 46 45 44 43 42 40 38 39 36 31 36 33 33 32 34 25 8 9 13 15 14 14 10 14 16 12 15 11 10 10 12 13 12 11 14 5 8 12 15 14 13 8 8
60 55 51 48 46 45 45 45 43 42 40 39 37 28 39 37 35 32 33 20 13 11 11 10 10 12 12 14 14 10 12 12 11 11 12 12 11 15 14 11 10 11 13 15 18 19 18
56 52 49 47 45 44 45 45 44 43 42 39 35 29 34 16 33 31 32 28 21 16 12 11 12 13 14 12 11 10 10 11 10 12 13 13 9 12 14 15 14 17 18 20 23 25 26
52 49 47 44 42 43 44 45 45 45 42 38 33 25 29 33 33 31 33 24 20 17 13 9 8 11 15 13 11 10 9 8 8 11 11 12 12 10 8 14 17 19 24 25 27 28 27
51 47 44 41 40 40 42 45 45 43 40 36 31 23 25 28 25 32 30 27 20 17 13 13 11 9 10 8 7 6 6 6 6 6 7 8 11 11 6 7 2 16 19 17 19 20 25
49 44 40 38 36 37 40 43 44 41 38 35 31 23 23 22 22 29 29 30 23 16 13 9 11 11 8 9 9 7 8 8 11 11 11 11 11 8 6 9 17 18 19 19 19 21 20
42 41 37 34 33 35 38 41 41 40 37 35 28 27 24 20 25 27 29 29 27 20 17 14 11 10 11 12 13 9 5 5 5 5 10 15 16 16 11 5 6 10 12 11 18 27 20
42 37 34 32 33 35 36 36 37 39 37 32 25 22 19 23 24 26 22 24 27 22 19 18 17 14 13 14 16 12 11 10 7 7 9 12 13 17 20 13 10 16 18 18 12 14 10
39 35 32 33 34 33 32 33 35 38 38 34 22 20 17 17 28 28 23 21 21 20 19 18 18 17 14 18 17 15 11 13 14 18 17 14 9 11 10 9 11 12 15 16 15 14 16
36 33 32 35 33 31 30 33 36 43 42 38 34 23 17 19 25 24 21 21 17 18 19 16 15 11 11 12 16 15 15 16 16 16 18 15 19 14 13 9 16 22 24 20 20 26 28

GFSGBSN_700_spd_039.txt.gz
Wind_Speed
39 38 36 35 33 31 29 27 28 27 28 27 27 26 25 26 27 28 27 26 21 19 14 12 10 9 9 11 9 9 10 8 7 7 7 7 8 8 9 11 5 4 8 8 11 19 20
43 40 38 36 34 32 29 29 28 28 27 25 25 24 24 25 27 27 24 21 18 16 12 11 10 9 12 14 13 13 11 9 10 9 7 8 7 7 10 9 6 6 6 14 18 21 16
46 43 39 37 36 33 31 30 28 28 25 23 23 23 24 25 27 24 19 17 16 14 12 11 11 12 17 14 16 15 12 13 10 8 8 9 7 8 8 11 7 7 7 13 15 17 15
47 45 41 38 37 34 31 30 28 27 24 22 21 22 24 24 24 19 15 14 13 12 11 11 11 16 16 15 18 14 13 12 9 7 9 7 7 9 16 15 12 10 9 17 15 16 16
41 46 43 41 37 35 32 30 28 27 23 21 20 21 22 22 20 15 14 13 12 13 12 12 13 19 15 14 19 13 11 11 8 4 4 8 5 8 14 15 12 8 8 12 16 14 14
49 38 44 43 39 35 33 31 29 26 23 20 20 20 19 19 15 13 13 12 12 12 13 13 18 15 12 13 19 16 12 11 9 3 4 11 4 6 15 15 10 9 9 10 15 15 11
53 43 42 44 42 37 33 32 30 26 23 20 20 18 17 16 12 12 13 12 12 12 14 13 19 9 10 11 19 17 13 11 7 3 3 8 7 11 14 13 5 7 7 7 10 11 14
57 48 43 45 43 39 35 32 31 26 23 21 20 17 16 14 12 13 13 12 11 9 11 16 20 9 10 10 17 20 18 13 6 4 8 9 10 10 9 8 5 5 5 5 7 13 14
60 52 41 46 44 41 37 34 31 27 24 22 19 17 15 13 14 14 13 12 10 7 11 15 14 11 7 10 13 21 19 14 8 8 11 12 11 11 8 7 3 2 3 6 6 10 11
60 52 43 50 47 44 38 36 31 28 26 23 20 18 16 16 17 18 15 13 10 8 8 16 12 11 9 7 10 20 21 15 9 11 12 11 11 9 6 4 2 4 5 5 7 8 5
62 59 58 50 50 45 40 37 33 31 28 24 22 20 20 21 22 19 15 13 12 13 3 12 14 12 10 9 10 13 18 13 12 15 10 10 10 7 6 2 1 3 5 4 6 7 6
64 66 58 48 53 46 42 39 36 33 30 26 25 25 25 26 24 19 16 15 13 8 4 12 19 14 13 10 11 14 15 14 14 14 10 12 10 7 4 2 3 3 6 5 5 4 3
65 70 67 56 56 47 42 39 37 35 32 29 29 29 29 30 24 21 19 18 9 6 7 12 21 18 15 11 13 16 14 15 15 14 11 10 8 6 5 6 5 4 5 0 1 0 4
68 67 65 61 55 46 43 40 39 36 34 32 33 33 34 33 26 22 22 20 6 9 12 11 19 19 15 13 13 18 14 18 14 11 14 9 4 6 6 9 5 6 7 4 4 3 2
65 70 62 57 55 47 42 40 39 36 35 35 36 36 38 36 29 24 24 21 10 6 13 15 18 20 16 15 11 19 16 15 14 10 8 9 5 8 6 9 8 6 5 7 3 2 2
47 79 66 56 58 45 43 40 39 36 36 35 36 38 38 38 31 25 24 19 11 6 16 17 21 19 18 15 11 17 17 15 13 12 10 7 6 9 7 8 11 9 5 3 4 3 3
49 81 63 62 55 48 45 43 40 38 35 36 38 38 39 38 31 26 27 27 18 8 15 20 18 16 16 17 10 16 15 11 14 13 12 11 8 8 9 8 8 10 11 5 4 3 3
46 57 66 56 53 56 52 46 43 41 40 40 40 38 39 37 33 30 29 25 14 9 17 19 19 14 17 18 12 14 13 12 11 15 13 14 10 9 14 10 10 10 10 9 4 4 5
44 60 70 60 47 52 51 49 47 45 43 43 44 36 37 37 36 31 30 25 15 12 18 22 20 13 13 16 14 14 14 11 10 9 11 15 10 8 4 10 14 15 16 14 13 9 9
38 62 50 59 59 54 52 51 49 46 44 42 43 30 38 36 33 33 30 27 16 12 16 23 20 15 11 11 17 10 15 14 13 12 12 13 16 13 15 7 8 17 19 17 16 10 12
51 54 62 55 54 55 54 53 49 47 45 46 45 32 43 42 37 34 29 28 16 14 14 18 18 18 16 10 17 15 16 17 14 14 14 15 15 18 17 14 12 12 13 16 20 22 20
64 74 40 57 60 57 56 53 52 48 46 47 40 33 38 17 35 33 31 28 23 13 15 16 14 13 13 12 12 15 10 11 13 13 15 17 11 13 16 17 17 19 18 19 21 24 28
52 51 49 60 58 57 55 54 52 49 47 47 37 28 30 34 36 34 31 30 24 17 11 11 11 14 15 12 10 9 9 11 11 13 14 15 14 11 8 14 16 18 25 25 26 27 28
41 47 61 57 55 55 56 54 51 49 46 44 35 28 26 34 23 36 30 28 28 20 15 12 9 11 13 13 12 9 8 8 9 9 11 10 11 10 6 5 2 15 18 17 19 20 23
56 59 52 53 55 54 52 52 50 48 44 41 37 30 25 27 34 30 31 27 26 24 19 13 12 11 9 11 11 8 8 8 11 11 11 10 10 6 5 8 16 18 18 22 23 23 20
53 52 50 50 49 48 50 50 48 47 44 40 36 27 23 24 29 25 33 29 28 24 20 14 13 13 12 14 12 8 6 5 4 4 14 15 14 13 10 5 5 5 9 16 18 20 19
50 48 47 45 43 43 46 47 46 45 43 39 35 28 23 22 19 26 31 31 31 26 22 20 16 15 12 13 13 11 10 8 5 5 5 8 10 15 16 11 9 14 15 14 8 11 11
45 44 41 38 39 40 41 44 45 43 40 36 30 28 24 23 17 24 27 28 32 29 24 21 21 20 17 15 13 12 9 10 10 13 11 10 6 8 8 7 7 4 6 9 15 18 17
40 36 34 34 35 35 37 40 41 41 38 35 30 27 21 19 20 24 26 19 23 28 23 21 19 14 17 13 12 9 11 11 13 14 14 13 14 12 11 8 14 21 22 19 18 18 20

GFSGBSN_700_spd_042.txt.gz
Wind_Speed
40 40 38 34 33 32 31 30 29 27 27 24 24 24 24 24 24 23 24 26 25 21 17 14 12 11 10 9 8 6 5 6 6 6 7 8 9 8 10 11 11 10 6 10 9 14 15
42 42 40 38 36 35 32 30 30 28 27 25 23 23 22 23 23 22 24 25 22 17 13 11 11 10 11 11 11 10 8 6 6 6 8 7 8 10 9 7 7 8 14 10 11 19 16
46 43 42 41 38 36 33 31 30 28 26 25 22 22 21 22 23 22 24 22 17 14 11 9 11 11 12 13 14 13 8 7 7 7 7 8 10 8 7 10 9 10 13 20 20 16 12
47 45 44 42 40 37 34 32 30 28 26 24 22 22 21 21 22 21 21 18 14 12 9 9 10 12 12 15 16 11 10 10 8 5 6 7 8 10 10 13 15 11 12 11 12 16 15
46 48 45 44 42 40 36 34 31 28 26 23 21 22 20 20 20 19 17 15 12 10 9 10 12 12 15 13 16 12 12 10 7 2 2 6 8 12 16 14 12 12 11 11 12 17 16
43 46 48 46 41 41 38 36 32 28 25 23 21 21 20 19 18 16 14 12 9 8 10 12 13 12 15 13 19 13 11 8 5 8 5 8 6 8 20 15 12 8 10 12 11 13 13
41 42 47 47 43 40 40 36 33 29 25 23 22 21 20 18 17 14 12 10 7 8 11 11 13 12 14 12 21 15 11 8 6 11 6 5 5 7 15 12 4 7 9 12 11 17 11
41 42 44 47 45 36 40 38 33 30 26 24 23 22 19 17 15 14 11 8 8 7 9 13 19 10 11 12 20 18 13 7 11 11 4 10 7 8 12 9 6 7 8 9 15 17 15
43 42 43 47 48 46 39 39 35 32 28 25 24 23 18 17 15 13 10 10 10 6 7 15 19 12 10 10 13 18 16 12 9 10 12 8 9 8 7 6 5 6 6 8 7 18 19
46 44 45 45 50 48 41 42 37 33 29 27 26 23 19 17 17 14 13 13 11 7 4 12 16 14 9 10 11 23 21 13 8 13 9 7 10 10 9 6 7 4 6 5 5 11 11
52 46 46 47 52 50 43 44 39 34 30 30 28 23 20 19 18 18 17 16 12 12 5 11 14 14 12 10 8 18 24 18 9 13 12 9 13 11 6 6 6 6 5 5 6 6 6
57 51 47 51 52 55 42 46 41 36 32 31 29 25 23 23 22 22 20 17 14 6 6 12 17 17 15 12 11 13 18 18 13 14 12 12 14 11 8 7 5 6 6 4 4 5 11
53 51 49 51 54 60 51 46 44 38 35 34 31 28 25 26 28 24 22 21 9 9 6 12 19 19 14 13 11 15 16 17 13 13 12 11 11 10 8 5 5 5 5 3 4 5 6
56 52 50 58 59 62 59 44 45 40 37 36 33 30 28 31 33 27 24 24 12 12 11 11 19 19 16 14 14 18 16 17 19 16 15 14 8 8 9 8 5 6 6 5 4 3 1
64 64 61 60 58 66 60 48 47 42 39 38 35 33 33 37 34 29 27 23 15 9 15 13 19 19 16 17 12 17 15 16 18 17 13 11 5 10 7 7 7 6 6 9 3 5 3
52 58 66 65 64 58 54 52 46 43 41 38 35 33 35 42 36 32 29 25 15 11 13 17 19 20 19 18 14 19 16 17 17 16 15 10 4 8 8 8 10 9 6 3 5 3 4
56 54 49 57 65 59 61 50 49 44 42 38 37 36 42 45 36 34 28 25 24 11 16 17 19 17 18 17 15 18 16 14 17 15 13 9 8 6 10 9 9 11 10 8 5 3 2
53 50 46 47 67 58 59 57 53 48 45 44 41 37 48 47 37 33 27 24 20 15 17 19 18 15 17 17 15 14 17 16 16 15 12 13 8 7 9 12 11 13 10 11 6 5 5
49 45 43 44 70 62 66 56 52 52 52 46 44 32 47 47 38 31 24 25 24 14 19 22 22 18 19 20 13 14 14 17 13 13 13 15 10 7 4 9 13 13 16 16 16 11 8
43 42 43 45 74 66 58 56 56 55 51 46 40 35 48 48 34 29 27 26 23 17 20 24 21 18 17 19 19 11 15 16 14 13 12 13 17 13 17 8 6 10 20 21 16 9 10
42 42 48 45 53 65 51 65 57 56 52 51 42 34 50 51 46 31 29 25 23 18 20 24 23 19 17 16 18 19 15 16 16 15 14 14 12 19 20 17 15 14 13 18 22 20 14
44 42 46 42 55 61 63 62 59 57 54 53 42 39 39 35 44 33 33 25 25 20 20 26 20 22 19 17 13 13 17 17 17 16 17 17 13 16 17 19 20 20 19 19 20 21 24
41 38 42 36 57 54 75 65 63 59 60 58 38 33 43 28 45 36 37 27 27 20 20 21 19 21 19 17 14 12 15 13 14 16 16 18 17 13 7 14 15 17 24 26 27 26 27
37 40 34 60 59 60 63 60 61 61 57 55 37 32 35 38 40 41 31 31 26 22 17 18 18 17 17 17 14 12 11 13 13 14 13 13 16 11 6 4 3 13 16 15 17 18 21
41 34 32 56 40 64 66 65 61 59 55 50 34 30 30 37 24 40 33 28 26 26 22 15 12 12 13 16 14 11 11 10 11 11 11 13 12 7 5 7 12 16 17 16 17 16 18
34 35 62 51 58 60 61 60 58 55 52 46 32 32 27 31 41 22 37 31 28 28 23 19 13 13 13 17 15 9 7 7 7 6 16 15 14 12 8 4 4 5 8 11 15 11 7
36 45 52 60 62 59 56 56 55 54 52 47 32 30 26 29 27 34 28 36 30 29 27 22 18 16 16 19 18 10 9 10 6 6 6 10 13 16 16 10 7 12 13 10 2 5 15
45 52 59 57 53 54 55 55 55 52 50 45 36 31 29 25 22 27 33 34 34 30 28 26 21 21 20 18 15 11 9 12 11 11 7 7 6 7 7 7 5 1 5 6 12 18 16
54 51 49 49 48 50 53 53 53 50 47 40 31 30 27 24 19 23 29 27 33 29 28 23 24 18 20 18 14 9 10 10 13 7 10 10 13 9 7 4 9 16 14 16 19 21 20

GFSGBSN_700_spd_045.txt.gz
Wind_Speed
40 38 38 37 35 33 31 30 29 28 26 25 24 23 23 23 23 22 22 22 24 26 22 18 13 10 9 8 9 10 5 1 4 4 3 7 7 8 9 10 9 13 9 6 8 8 7
41 41 40 39 37 35 33 32 32 29 28 26 24 22 22 22 22 22 22 23 24 23 18 14 10 8 8 9 11 7 3 2 3 4 5 9 7 9 7 8 11 7 5 4 8 14 12
39 41 41 41 38 37 35 34 32 30 28 26 23 22 21 22 21 21 21 22 23 18 14 10 7 8 9 10 12 8 5 3 4 4 5 9 11 6 4 4 7 11 8 12 9 12 12
35 38 40 42 41 39 36 36 33 31 28 26 24 22 21 21 20 20 20 21 20 14 11 9 8 9 8 13 11 11 7 4 4 3 4 8 10 12 7 9 8 9 12 13 13 13 10
36 36 37 40 41 40 38 38 35 32 29 28 24 22 21 21 19 19 19 19 16 12 9 8 9 9 7 12 12 7 7 5 6 3 3 4 5 7 7 10 15 13 11 14 11 15 10
36 37 37 37 39 40 40 38 36 34 31 28 25 23 21 20 19 17 18 15 12 10 9 8 10 5 9 7 13 12 6 4 4 3 4 1 7 8 12 14 15 15 17 16 14 15 15
40 38 38 37 36 39 40 38 36 36 33 29 25 24 21 20 17 16 16 10 8 8 9 9 7 13 9 14 17 13 8 4 5 4 6 4 7 11 15 16 5 8 11 12 13 12 13
46 42 40 38 37 36 40 39 33 37 35 31 27 25 22 20 16 16 13 8 11 9 7 11 12 15 12 13 15 14 13 7 9 13 11 12 9 12 13 13 6 6 6 10 9 11 10
51 48 42 40 39 35 37 39 36 37 36 32 28 26 23 19 16 13 10 11 10 8 5 10 14 15 11 11 12 15 15 9 11 7 17 11 8 8 9 7 6 5 8 4 8 13 14
55 52 48 44 41 38 35 39 39 36 36 33 29 26 24 19 16 12 10 12 11 8 4 11 20 17 12 10 11 16 15 11 10 11 11 0 10 8 6 7 8 10 9 5 5 11 21
60 56 53 48 44 43 38 40 44 36 38 35 30 27 25 21 15 14 20 16 13 10 5 10 17 12 11 12 2 14 17 13 11 10 15 9 7 6 9 4 9 3 4 4 8 15 12
66 62 57 53 48 45 43 40 45 44 40 36 32 30 27 21 17 20 20 19 15 7 8 11 19 19 15 14 10 9 17 17 11 9 12 12 7 6 2 8 6 5 2 5 9 13 12
70 66 62 57 53 49 47 44 46 45 42 37 33 32 27 24 23 26 24 21 10 14 7 14 20 20 18 13 12 12 17 19 19 13 14 11 9 8 6 5 4 6 8 13 7 6 9
71 68 63 60 57 53 51 48 48 42 45 39 36 34 30 26 27 31 28 25 15 11 13 8 19 20 20 15 14 13 16 21 21 18 17 17 10 12 10 10 5 8 10 8 6 7 7
67 66 65 63 60 57 55 53 52 44 45 40 40 37 33 28 32 35 32 26 25 8 17 12 16 22 21 16 12 15 18 21 19 20 16 21 7 10 10 8 6 7 8 4 5 7 7
48 62 64 62 61 60 59 58 54 48 46 42 40 37 32 32 40 38 32 29 25 10 14 15 20 22 22 20 16 17 18 19 16 17 16 6 5 6 7 8 9 9 4 4 7 3 6
60 55 61 66 67 64 62 60 58 55 45 43 41 38 35 36 43 42 36 28 20 13 12 17 20 19 20 19 19 18 18 12 17 16 19 14 13 6 6 11 12 7 11 9 7 5 4
60 61 58 61 62 68 65 60 64 54 47 49 45 32 41 41 47 41 37 27 20 17 14 14 18 17 19 19 18 16 20 16 17 15 15 16 10 13 13 10 13 10 11 12 11 8 7
52 59 61 56 55 58 54 58 66 58 55 55 48 33 30 44 48 38 33 26 25 19 18 17 18 20 18 18 16 17 16 19 14 19 16 14 12 15 12 11 14 13 13 13 13 9 11
45 54 60 58 52 51 48 62 65 61 58 55 42 36 36 52 46 38 36 29 27 22 17 18 19 18 16 17 18 14 14 17 21 17 18 15 16 16 17 13 5 12 14 16 17 14 15
48 51 55 53 46 45 49 71 67 57 60 54 46 43 50 53 54 42 34 28 27 28 19 18 20 21 18 17 18 13 14 14 17 17 17 15 13 15 19 14 11 12 12 13 20 23 22
44 47 47 45 40 45 57 69 67 54 60 59 49 41 31 32 46 36 38 33 31 27 20 21 21 22 19 15 17 14 15 12 14 18 17 17 12 13 14 14 14 17 18 18 19 21 23
43 42 42 42 41 47 59 79 52 64 65 67 46 38 35 36 48 41 41 36 30 26 22 20 23 23 20 16 15 11 13 12 10 13 16 11 12 10 11 9 9 14 21 22 22 22 21
38 39 42 45 44 47 54 68 57 72 72 65 42 33 38 41 52 49 34 33 27 27 18 23 20 21 23 20 16 14 13 14 13 14 13 15 12 11 7 4 2 10 13 14 13 15 18
40 44 46 44 48 47 49 66 72 70 71 59 34 30 35 39 44 40 34 33 26 25 16 24 26 22 19 16 14 13 12 13 14 15 16 15 13 8 6 9 12 14 12 13 9 8 8
42 41 43 42 46 43 54 63 75 65 68 56 39 35 31 39 43 40 33 35 28 26 21 20 21 19 16 17 17 10 9 11 7 6 16 15 16 11 9 4 4 4 9 9 7 8 1
40 41 41 46 40 34 61 60 69 73 68 50 42 34 19 33 29 35 38 35 28 24 22 25 20 16 13 16 17 10 10 9 7 8 8 16 16 15 12 8 7 10 13 10 5 3 9
38 42 45 36 46 56 66 67 67 65 66 49 40 32 28 26 36 31 31 30 28 28 27 27 23 21 18 15 15 10 11 12 9 8 8 7 8 9 10 7 7 9 2 2 7 15 19
37 33 38 57 56 62 59 60 61 63 55 43 41 30 25 25 27 39 35 31 36 29 25 26 20 21 20 13 16 15 12 11 14 7 13 8 10 5 8 4 9 9 13 17 19 21 23

GFSGBSN_700_spd_048.txt.gz
Wind_Speed
37 38 37 37 36 36 34 32 30 29 28 28 27 26 25 22 21 21 21 22 22 22 24 24 20 13 9 8 9 13 8 4 1 2 3 3 5 6 8 9 10 13 15 9 5 4 4
34 36 38 38 37 36 35 34 33 30 30 30 28 26 24 22 20 20 21 22 21 22 23 19 16 11 9 6 2 12 2 2 2 0 2 5 5 6 11 8 11 7 10 3 8 6 4
31 31 33 36 37 39 35 35 35 33 32 31 28 27 24 22 20 20 20 20 20 20 19 16 12 10 8 6 9 6 5 1 1 4 2 4 8 5 1 5 8 2 3 8 9 12 6
32 31 30 31 33 37 36 34 35 34 34 32 29 27 24 21 19 20 20 19 19 19 16 13 10 9 5 8 7 7 6 3 6 7 4 5 9 12 9 4 2 8 3 2 1 4 4
35 33 32 31 30 32 33 36 36 35 35 33 30 28 24 20 19 19 19 17 17 16 14 9 9 9 4 7 5 7 2 5 9 4 2 4 5 8 3 7 3 8 10 14 9 10 5
38 36 34 33 31 29 29 34 35 35 34 34 30 29 24 20 19 19 17 15 14 13 10 6 8 4 4 2 4 6 8 8 3 5 2 2 4 5 6 12 13 15 16 12 9 10 11
42 41 38 35 33 32 28 30 34 35 34 34 31 29 23 19 19 19 16 12 7 12 9 6 4 10 7 11 15 13 6 7 4 3 6 2 6 11 14 15 10 6 8 14 13 12 11
49 45 43 40 37 34 31 28 31 35 35 33 31 28 23 19 20 18 16 9 8 12 13 11 16 18 14 11 10 11 10 9 9 10 2 10 10 10 9 15 13 9 10 10 12 10 12
54 51 47 45 42 37 35 29 29 32 35 32 31 27 23 20 20 17 15 11 15 12 13 7 13 13 12 10 15 13 13 11 8 11 7 16 11 10 21 20 18 13 9 12 10 8 11
61 56 52 48 45 42 37 34 29 31 36 34 32 28 24 22 19 16 12 11 10 7 7 11 15 16 16 11 13 13 17 13 10 9 7 13 20 15 11 10 8 10 3 7 13 14 14
65 62 57 52 49 45 41 38 33 31 36 36 33 29 26 25 19 16 18 14 10 4 4 6 15 8 14 17 4 17 13 17 13 6 8 9 11 12 11 10 3 3 9 7 12 12 8
71 67 62 58 53 49 44 41 37 32 36 37 34 30 28 25 20 19 13 15 14 5 8 7 12 16 19 16 12 6 17 16 10 13 9 10 10 11 7 1 4 2 4 10 12 15 11
76 72 67 63 58 54 49 45 41 37 36 40 34 31 27 27 22 21 17 19 10 12 7 11 18 17 19 16 16 14 13 20 17 11 11 8 14 8 6 6 5 6 10 7 7 9 5
78 74 71 68 64 59 55 50 45 41 38 40 38 34 31 30 28 23 25 23 14 9 18 1 15 16 22 17 16 15 16 21 22 19 13 14 14 14 13 10 7 11 7 3 3 3 6
79 76 73 70 67 63 59 55 50 45 42 42 42 37 37 31 28 29 32 31 21 15 13 12 13 20 21 19 13 16 18 21 20 21 21 5 5 8 2 7 4 11 5 1 9 4 5
71 73 72 72 69 64 61 58 54 49 45 45 42 40 36 34 32 34 38 37 22 20 5 15 19 20 20 21 17 16 16 18 20 19 21 13 6 17 10 13 9 8 7 4 4 2 4
48 67 66 71 70 68 65 61 58 53 47 44 40 42 38 37 35 41 47 38 27 20 13 11 19 18 20 21 19 15 15 12 18 10 14 10 23 11 9 8 8 7 9 10 11 7 1
52 51 59 59 60 68 67 65 62 57 51 45 44 46 43 42 43 49 49 32 27 19 17 18 18 20 17 19 18 20 18 18 17 15 9 14 10 9 12 7 7 8 10 9 11 9 6
57 62 58 59 52 58 67 68 66 60 57 51 49 41 30 40 49 48 40 30 31 26 21 18 18 18 15 19 20 19 13 14 13 11 12 12 10 12 14 11 9 15 14 14 13 9 11
59 56 60 57 57 55 51 64 67 64 62 54 51 41 36 44 50 43 39 33 32 30 23 19 18 17 16 20 16 16 16 18 14 14 18 17 11 14 13 15 7 8 10 14 15 12 15
57 64 64 57 64 56 54 54 65 62 68 55 55 45 53 49 55 35 34 31 34 31 27 20 22 22 18 18 17 17 17 15 17 20 21 18 15 16 18 18 16 12 13 10 14 17 20
52 54 61 54 54 51 55 52 57 62 73 54 59 45 46 25 47 43 41 42 36 32 29 26 20 21 22 18 19 18 14 16 13 15 17 18 14 14 14 12 14 15 17 19 20 20 20
49 46 48 50 49 51 53 53 56 71 77 63 62 54 33 50 25 54 51 44 39 32 29 27 21 19 20 19 18 17 17 16 8 13 19 13 14 8 8 11 11 14 20 19 20 20 19
47 37 46 47 47 52 50 47 57 77 74 65 63 52 30 32 41 55 45 34 37 31 29 23 22 25 23 21 18 15 11 11 12 10 10 13 12 11 7 6 1 13 8 11 13 12 12
47 42 49 44 43 47 42 45 58 79 68 63 61 55 23 38 45 38 44 42 33 29 33 31 28 25 24 24 18 13 14 13 12 11 15 11 12 11 7 10 11 16 9 8 6 5 4
40 43 42 40 42 44 41 46 58 79 66 55 67 55 16 38 44 46 43 38 39 32 28 30 28 23 25 22 17 11 9 11 9 7 15 15 14 13 9 4 5 3 9 8 7 6 3
36 36 39 41 43 45 47 49 58 75 69 66 55 37 13 36 37 44 47 42 39 33 37 30 33 31 27 24 18 11 11 10 11 11 9 13 17 17 13 7 6 8 13 13 5 5 11
35 39 42 44 46 46 50 52 56 73 72 75 46 29 29 27 27 48 47 35 37 30 36 33 29 27 24 20 16 11 11 13 10 9 11 8 10 12 13 7 8 12 11 5 11 10 14
40 37 38 41 41 41 42 42 66 63 77 76 46 22 20 19 45 47 45 44 39 33 28 23 21 23 17 16 13 12 12 15 18 11 12 9 10 6 8 3 9 8 11 12 14 21 21